Regional Weather Roundup
Issued by NWS

Home | Current Version | Previous Version | Text Only | Print | Product List | Glossary Off
Versions: 1 2 3 4 5 6 7 8 9 10 11 12 13 14 15 16 17 18 19 20 21 22 23 24 25 26 27 28 29 30 31 32 33 34 35 36 37 38 39 40 41 42 43 44 45 46 47 48 49 50

000
ASUS43 KOAX 060910
RWRNE

WEATHER ROUNDUP FOR NEBRASKA
NATIONAL WEATHER SERVICE OMAHA NE
400 AM CDT MON JUL 06 2015

NOTES: SATELLITE DATA IS BEING USED TO AUGMENT CLOUD COVER ABOVE
       12000 FEET.
       "FAIR" INDICATES FEW OR NO CLOUDS BELOW 12,000 FEET WITH NO
       SIGNIFICANT WEATHER AND/OR OBSTRUCTIONS TO VISIBILITY.

  * THESE STATIONS DO NOT REPORT WEATHER SUCH AS RAIN...SNOW OR FOG.

NEZ001>004-019>022-054>056-061000-
NEBRASKA PANHANDLE

CITY           SKY/WX    TMP DP  RH WIND       PRES   REMARKS
SCOTTSBLUFF    CLOUDY    62  59  90 N6        30.11R
ALLIANCE       CLOUDY    61  59  93 N17       30.08R
CHADRON        CLOUDY    60  58  92 N14       30.11S FOG
KIMBALL          N/A    N/A N/A N/A MISG        N/A
SIDNEY         CLOUDY    63  60  90 N14       30.09R
$$

NEZ057>060-069>072-079>082-061000-
SOUTHWEST NEBRASKA

CITY           SKY/WX    TMP DP  RH WIND       PRES   REMARKS
NORTH PLATTE   CLOUDY    66  63  90 N3        29.94R
IMPERIAL       CLOUDY    66  62  87 N14       29.97R
LEXINGTON      CLOUDY    70  66  88 N5        29.89R
MCCOOK         CLOUDY    70  67  90 NE9       29.87R
OGALLALA       CLOUDY    65  62  88 N13       30.00R
$$

NEZ005>010-023>029-035>040-094-061000-
NORTH CENTRAL NEBRASKA

CITY           SKY/WX    TMP DP  RH WIND       PRES   REMARKS
VALENTINE      CLOUDY    64  62  93 N14       29.97R
AINSWORTH      LGT RAIN  64  64 100 N16       29.94S
BROKEN BOW     CLOUDY    69  65  86 N5        29.87R
O`NEILL        LGT RAIN  68  68  98 CALM      29.85F
ORD            CLOUDY    69  66  90 CALM      29.85R
THEDFORD       DRIZZLE   64  63  94 N14G20    29.95F
$$

NEZ041-046>049-061>064-073>077-083>087-061000-
SOUTH CENTRAL NEBRASKA

CITY           SKY/WX    TMP DP  RH WIND       PRES   REMARKS
GRAND ISLAND   CLOUDY    69  67  93 NE10      29.89R
AURORA         CLOUDY    70  70 100 E10       29.89F
HASTINGS       CLOUDY    71  68  90 E9        29.86F
HEBRON         CLOUDY    80  67  64 SW5       29.83S
HOLDREGE       CLOUDY    69  66  88 N8        29.86F
KEARNEY *      CLOUDY    70  64  83 NE10      29.87F
YORK           TSTM      72  68  88 NW8       29.91R
$$

NEZ011>018-030>034-042>045-061000-
NORTHEAST NEBRASKA

CITY           SKY/WX    TMP DP  RH WIND       PRES   REMARKS
NORFOLK        LGT RAIN  71  67  87 NE9       29.84R
ALBION         LGT RAIN  71  66  86 NE6       29.86F
BLAIR          CLOUDY    77  71  82 S13G18    29.83R
COLUMBUS *     CLOUDY    75  66  73 N6        29.88R
FREMONT        CLOUDY    78  70  77 W8        29.84R
TEKAMAH        CLOUDY    78  74  87 S7        29.80R
WAYNE          CLOUDY    69  68  96 CALM      29.84F
$$

NEZ050>053-065>068-078-088>093-061000-
SOUTHEAST NEBRASKA

CITY           SKY/WX    TMP DP  RH WIND       PRES   REMARKS
LINCOLN        CLOUDY    82  69  64 W13       29.84R
OMAHA EPPLEY   CLOUDY    80  73  79 SW8       29.81R
BEATRICE       CLOUDY    81  71  72 W7        29.85R
FALLS CITY     CLOUDY    81  72  74 S10       29.82S
NEBRASKA CITY  CLOUDY    80  69  69 SW10      29.82S
PLATTSMOUTH    HVY RAIN  77  72  82 SW16      29.81S
$$

NEZ044-045-051>053-067-061000-
OMAHA AREA

CITY           SKY/WX    TMP DP  RH WIND       PRES   REMARKS
OMAHA EPPLEY   CLOUDY    80  73  79 SW8       29.81R
BLAIR          CLOUDY    77  71  82 S13G18    29.83R
FREMONT        CLOUDY    78  70  77 W8        29.84R
MILLARD        CLOUDY    80  73  79 SW6       29.82R
OFFUTT AFB     CLOUDY    79  73  81 SW9       29.79R
PLATTSMOUTH    HVY RAIN  77  72  82 SW16      29.81S
WAHOO          FAIR      77  66  69 W15G28    29.84R
$$



USA.gov is the U.S. government's official web portal to all federal, state and local government web resources and services.